This is the latest recevied weather packets stored in our database for station/object NR0A-4. If no packets are shown the sender has not sent any weather packets the latest 10 day(s).
| Time | Temp. | Humidity | Pressure | Rain* | Wind** | Luminosity | Snow |
|---|---|---|---|---|---|---|---|
| 1788186304 | 20.56° C | 83% | 1014.1 hPa | 0 mm | - | 134 W/m² | - |
| 1788186004 | 20.56° C | 84% | 1014.2 hPa | 0 mm | - | 135 W/m² | - |
| 1788185704 | 20° C | 84% | 1014.4 hPa | 0 mm | - | 123 W/m² | - |
| 1788185404 | 20° C | 84% | 1014.6 hPa | 0 mm | - | 109 W/m² | - |
| 1788185105 | 20° C | 84% | 1014.6 hPa | 0 mm | - | 91 W/m² | - |
| 1788184803 | 20° C | 84% | 1014.7 hPa | 0 mm | - | 83 W/m² | - |
| 1788184504 | 20° C | 85% | 1014.5 hPa | 0 mm | - | 86 W/m² | - |
| 1788184204 | 20.56° C | 84% | 1014.6 hPa | 0 mm | - | 93 W/m² | - |
| 1788183904 | 20.56° C | 84% | 1014.6 hPa | 0 mm | - | 93 W/m² | - |
| 1788183604 | 20.56° C | 85% | 1014.8 hPa | 0 mm | - | 86 W/m² | - |
| 1788183304 | 20.56° C | 85% | 1014.7 hPa | 0 mm | - | 72 W/m² | - |
| 1788183004 | 20.56° C | 85% | 1014.8 hPa | 0 mm | - | 60 W/m² | - |
| 1788182704 | 20° C | 85% | 1014.8 hPa | 0 mm | - | 63 W/m² | - |
| 1788182404 | 20° C | 85% | 1014.2 hPa | 0 mm | - | 69 W/m² | - |
| 1788182104 | 20° C | 85% | 1013.8 hPa | 0 mm | - | 58 W/m² | - |
| 1788181804 | 20° C | 85% | 1013.8 hPa | 0 mm | - | 44 W/m² | - |
| 1788181504 | 20° C | 85% | 1013.9 hPa | 0 mm | - | 32 W/m² | - |
| 1788181204 | 20° C | 85% | 1013.9 hPa | 0 mm | - | 26 W/m² | - |
| 1788180925 | 20° C | 86% | 1013.8 hPa | 0 mm | - | 23 W/m² | - |
| 1788180604 | 20° C | 85% | 1013.7 hPa | 0 mm | - | 21 W/m² | - |
| 1788180304 | 20° C | 85% | 1013.7 hPa | 0 mm | - | 21 W/m² | - |
| 1788180004 | 20° C | 86% | 1013.4 hPa | 0 mm | - | 21 W/m² | - |
| 1788179704 | 20° C | 85% | 1013.2 hPa | 0 mm | - | 18 W/m² | - |
| 1788179404 | 20° C | 86% | 1013 hPa | 0 mm | - | 16 W/m² | - |
| 1788179104 | 20° C | 86% | 1012.8 hPa | 0 mm | - | 14 W/m² | - |
* Rain latest hour (hover to see other rain measurements)
** Current wind speed in m/s (hover to see current wind gust speed)